Regional Weather Roundup
Issued by NWS

Current Version | Previous Version | Text Only | Print | Product List | Glossary Off
Versions: 1 2 3 4 5 6 7 8 9 10 11 12 13 14 15 16 17 18 19 20 21 22 23 24 25 26 27 28 29 30 31 32 33 34 35 36 37 38 39 40 41 42 43 44 45 46 47 48 49 50

000
ASUS43 KLMK 280610
RWRKY
KENTUCKY REGIONAL WEATHER ROUNDUP
NATIONAL WEATHER SERVICE LOUISVILLE KY
200 AM EDT THU MAY 28 2015

NOTE "FAIR" INDICATES FEW OR NO CLOUDS BELOW 12,000 FEET
WITH NO SIGNIFICANT WEATHER AND/OR OBSTRUCTIONS TO VISIBILITY.

KYZ001>023-026-027-061>063-070>075-280700-
WESTERN AND SOUTH CENTRAL KENTUCKY

CITY           SKY/WX    TMP DP  RH WIND       PRES   REMARKS
PADUCAH        MOCLDY    69  66  90 S3        30.14S
HENDERSON      MOCLDY    66  63  88 SW6       30.14S
OWENSBORO      CLOUDY    67  66  96 S5        30.16S
HOPKINSVILLE   CLOUDY    68  66  94 S5        30.15F
BOWLING GREEN  CLOUDY    68  64  87 SW5       30.17S
GLASGOW        CLOUDY    65  64  99 CALM      30.18S
$$

KYZ024-025-028>034-038-045-046-053-280700-
NORTH CENTRAL KENTUCKY

CITY           SKY/WX    TMP DP  RH WIND       PRES   REMARKS
LOUISVILLE/SDF CLOUDY    67  63  87 SW6       30.16S
LOUISVILLE/LOU CLOUDY    66  63  90 CALM      30.17R
FORT KNOX      CLOUDY    64  63  96 CALM      30.15F
$$

KYZ035>037-039>044-047>052-055>060-089>105-280700-
NORTHEAST KENTUCKY

CITY           SKY/WX    TMP DP  RH WIND       PRES   REMARKS
LEXINGTON      MOCLDY    62  60  93 SW5       30.17S
COVINGTON      CLOUDY    64  61  90 SW6       30.16S
FRANKFORT      CLOUDY    62  59  90 SW3       30.16S
$$

KYZ054-064>069-076>088-106>120-280700-
SOUTHEAST KENTUCKY

CITY           SKY/WX    TMP DP  RH WIND       PRES   REMARKS
JACKSON        PTCLDY    65  61  87 CALM      30.20S
LONDON         PTCLDY    62  58  86 CALM      30.20S
SOMERSET       MOCLDY    59  59 100 CALM      30.21S FOG
MIDDLESBORO    CLOUDY    64  64 100 CALM      30.21S FOG
MONTICELLO     MOCLDY    62  62 100 CALM      30.22R FOG
$$




USA.gov is the U.S. government's official web portal to all federal, state and local government web resources and services.